Terminal Aerodrome Forecast
Issued by NWS

Home | Current Version | Previous Version | Text Only | Print | Product List | Glossary On
Versions: 1 2 3 4 5 6 7 8 9 10 11 12
900
FTUS45 KRIW 102322
TAFBPI
TAF
KBPI 102322Z 1100/1124 36009KT P6SM SCT250
     FM110500 VRB05KT P6SM FEW250
     FM111800 35011KT P6SM SCT250=

USA.gov is the U.S. government's official web portal to all federal, state and local government web resources and services.